Regional Weather Roundup
Issued by NWS

Home | Current Version | Previous Version | Graphics & Text | Print | Product List | Glossary On
Versions: 1 2 3 4 5 6 7 8 9 10 11 12 13 14 15 16 17 18 19 20 21 22 23 24 25 26 27 28 29 30 31 32 33 34 35 36 37 38 39 40 41 42 43 44 45 46 47 48 49 50
000
ASUS43 KBIS 302201
RWRND

NORTH DAKOTA REGIONAL WEATHER ROUNDUP
NATIONAL WEATHER SERVICE BISMARCK ND
400 PM CST FRI JAN 30 2015

NOTE: "FAIR" INDICATES FEW OR NO CLOUDS BELOW 12,000 FEET WITH NO
SIGNIFICANT WEATHER AND/OR OBSTRUCTIONS TO VISIBILITY.


NDZ001>003-009>011-017-302300-
NORTHWEST NORTH DAKOTA

CITY           SKY/WX    TMP DP  RH WIND       PRES   REMARKS
WILLISTON      SUNNY     41  27  57 NW9       30.18S
MINOT          CLOUDY    30  24  78 NW18      30.15S WCI  18
MINOT AFB      CLOUDY    28  28  99 NW16      30.15R WCI  16
$$

NDZ018>021-031>035-040>046-302300-
SOUTHWEST NORTH DAKOTA

CITY           SKY/WX    TMP DP  RH WIND       PRES   REMARKS
BISMARCK       SUNNY     46  26  45 NW14G22   30.13R
DICKINSON      SUNNY     46  25  43 NW15      30.13R
GARRISON         N/A     40  30  67 NW20      30.13R
HETTINGER ARPT SUNNY     48  25  40 NW12      30.15R
$$

NDZ004>008-012>016-024-026-027-054-302300-
NORTHEAST NORTH DAKOTA

CITY           SKY/WX    TMP DP  RH WIND       PRES   REMARKS
GRAND FORKS    MOSUNNY   35  23  61 W10       30.10F
GRND FRKS AFB  MOSUNNY   36  23  59 W10       30.11S
DEVILS LAKE    MOSUNNY   30  23  74 NW16      30.09R WCI  19
$$

NDZ022-023-025-028>030-036>039-047>053-302300-
SOUTHEAST NORTH DAKOTA

CITY           SKY/WX    TMP DP  RH WIND       PRES   REMARKS
FARGO          SUNNY     33  24  69 S15       30.13F
JAMESTOWN      SUNNY     36  25  64 W10       30.10R
$$




USA.gov is the U.S. government's official web portal to all federal, state and local government web resources and services.